• MPC Preparation (Info)

  • MPEC 2023-P15 : 2011 RS

    The following Minor Planet Electronic Circular may be linked-to from your own Web pages, but must not otherwise be redistributed electronically.

    A form allowing access to any MPEC is at the bottom of this page.


    Read MPEC 2023-P14 Read MPEC 2023-P16


    M.P.E.C. 2023-P15                                Issued 2023 August 3, 16:52 UT
    
         The Minor Planet Electronic Circulars contain information on unusual
             minor planets, routine data on comets and natural satellites,
             and occasional editorial announcements.  They are published
        on behalf of Division F of the International Astronomical Union by the
              Minor Planet Center, Smithsonian Astrophysical Observatory,
                              Cambridge, MA 02138, U.S.A.
    			  
                 Prepared using the Tamkin Foundation Computer Network
    
                                  MPC@CFA.HARVARD.EDU
                URL https://www.minorplanetcenter.net/    ISSN 1523-6714
    
                                     2011 RS                                 
    
    
    Additional Observations:
         K11R00S  C2008 09 06.29889 23 29 15.72 -02 13 44.7          21.9 VrEP015G96
         K11R00S  C2008 09 06.30469 23 29 15.68 -02 13 45.3          21.6 VrEP015G96
         K11R00S  C2008 09 06.31046 23 29 15.54 -02 13 45.9          21.8 VrEP015G96
         K11R00S  C2008 09 06.31615 23 29 15.46 -02 13 46.1          22.0 VrEP015G96
         K11R00S ZC2010 09 16.44858 23 54 03.34 +03 01 55.1          21.9 w EP015F51
         K11R00S ZC2010 09 16.45971 23 54 03.25 +03 01 54.7          21.7 w EP015F51
         K11R00S ZC2010 09 16.4708  23 54 03.16 +03 01 54.2          21.5 w EP015F51
         K11R00S ZC2010 10 03.38205 23 51 48.01 +02 50 41.6          21.9 w EP015F51
         K11R00S ZC2010 10 03.39532 23 51 47.91 +02 50 41.0          21.9 w EP015F51
         K11R00S ZC2010 10 03.4099  23 51 47.79 +02 50 40.3          22.0 w EP015F51
         K11R00S ZC2010 10 03.42313 23 51 47.68 +02 50 39.9          22.1 w EP015F51
         K11R00S ZC2010 10 14.29561 23 50 25.67 +02 43 30.3          21.3 w EP015F51
         K11R00S ZC2010 10 14.30717 23 50 25.59 +02 43 29.9          21.3 w EP015F51
         K11R00S ZC2012 10 04.46035 00 19 07.33 +08 24 42.8          21.2 w EP015F51
         K11R00S ZC2012 10 04.47263 00 19 07.23 +08 24 42.3          21.3 w EP015F51
         K11R00S ZC2012 10 09.34074 00 18 27.63 +08 21 17.8          21.8 w EP015F51
         K11R00S ZC2012 10 09.35483 00 18 27.51 +08 21 17.2          21.7 w EP015F51
         K11R00S ZC2012 10 09.369   00 18 27.40 +08 21 16.6          21.6 w EP015F51
         K11R00S ZC2012 10 09.38331 00 18 27.29 +08 21 16.0          21.8 w EP015F51
         K11R00S  c2012 11 04.24255600 15 21.213+08 03 35.48         21.8 wLEP015F51
         K11R00S  c2012 11 04.25662800 15 21.110+08 03 34.85         22.0 wLEP015F51
         K11R00S  c2012 11 04.28489600 15 20.925+08 03 34.01         22.1 wLEP015F51
    
    Observer details:
    F51 Pan-STARRS 1, Haleakala.  Observers J. Bulger, T. Lowe, A. Schultz, I.
        Smith, T. Goggia, N. Primak, J. Thiel, S. Watters.  Measurers J.
        Kurlander, M. Holman, M. Payne, A. Heinze, P. Bernardinelli, M. Lackner,
        Pan-STARRS 1 Science Consortium.  1.8-m Ritchey-Chretien + CCD.
    G96 Mt. Lemmon Survey.  Observer R. A. Kowalski.  Measurers E. C. Beshore, A.
        Boattini, G. J. Garradd, A. R. Gibbs, A. D. Grauer, R. E. Hill, R. A.
        Kowalski, S. M. Larson, R. H. McNaught.  1.5-m reflector + CCD.
    
    Orbital elements:
    2011 RS                                                                         
    Epoch 2023 Sept. 13.0 TT = JDT 2460200.5                Alexandersen            
    M   8.70453              (2000.0)            P               Q                  
    n   0.00375661     Peri.   40.57309     +0.87058905     -0.48872701             
    a  40.9831387      Node   348.28112     +0.34720066     +0.69197915             
    e   0.4814519      Incl.   16.22485     +0.34860638     +0.53132924             
    P 262              H    8.49          G   0.15           U   4                  
    Residuals in seconds of arc
    080906 G96  0.0   0.2+    101014 F51  0.1-  0.0     110906 568  0.2+  0.1-
    080906 G96  0.0   0.2-    110904 F51  0.2+  0.1+    110906 568  0.3+  0.0
    080906 G96 (1.4-  0.6-)   110904 F51  0.1-  0.1-    121004 F51  0.1+  0.0
    080906 G96 (1.9-  0.6-)   110904 F51  0.2-  0.1+    121004 F51  0.1+  0.0
    100916 F51  0.0   0.1+    110906 H21  0.6-  0.3+    121009 F51  0.1+  0.1+
    100916 F51  0.0   0.1+    110906 H21  0.4-  0.3+    121009 F51  0.0   0.1+
    100916 F51  0.0   0.1+    110906 H21  0.4-  0.0     121009 F51  0.1+  0.0
    101003 F51  0.1+  0.1+    110906 568  0.1+  0.2-    121009 F51  0.3+  0.1+
    101003 F51  0.2+  0.0     110906 568  0.1+  0.1-    121104 F51  0.1+  0.2-
    101003 F51  0.1+  0.1-    110906 568  0.2+  0.1-    121104 F51  0.1-  0.3-
    101003 F51  0.1+  0.0     110906 568  0.2+  0.1-    121104 F51  0.3-  0.1-
    101014 F51  0.1-  0.0     110906 568  0.2+  0.2-
    
    Ephemeris:
    2011 RS                  a,e,i = 40.98, 0.48, 16                 q = 21.2517
    Date    TT    R. A. (2000) Decl.     Delta      r    Elong.  Phase     V
    2023 07 04    03 22 04.8 +33 29 19  22.7107 22.0233    46.5     1.9    22.2
    ...
    2023 07 19    03 24 30.7 +33 46 23  22.5310 22.0333    59.5     2.3    22.2
    ...
    2023 07 27    03 25 33.6 +33 55 14  22.4217 22.0387    66.6     2.4    22.2
    ...
    2023 08 02    03 26 13.2 +34 01 39  22.3352 22.0428    72.0     2.5    22.2
    2023 08 03    03 26 19.1 +34 02 42  22.3205 22.0434    72.9     2.5    22.2
    2023 08 04    03 26 24.9 +34 03 45  22.3056 22.0441    73.8     2.5    22.2
    ...
    2023 08 10    03 26 55.4 +34 09 53  22.2153 22.0482    79.2     2.6    22.2
    ...
    2023 08 18    03 27 24.9 +34 17 36  22.0920 22.0536    86.5     2.6    22.2
    ...
    2023 09 02    03 27 44.5 +34 30 22  21.8601 22.0638   100.4     2.6    22.2
    
    M. P. C. Staff               (C) Copyright 2023 MPC           M.P.E.C. 2023-P15
    


    Read MPEC 2023-P14 Read MPEC 2023-P16


    MPEC number:

    Enter an MPEC number in one of the following forms:

    • 1997-B01 (the full form)
    • J97B01 (the packed version of the full form)
    • B01 (the abbreviated form)